Weather History for VDSR - June, 2013

Change the Weather History Date:

Sunday, June 30, 2013

  Actual Average Record
Temperature  
Mean Temperature 84 °F -  
Max Temperature 91 °F - - ()
Min Temperature 78 °F - - ()
Cooling Degree Days 20    
Growing Degree Days 34 (Base 50)    
Moisture  
Dew Point 75 °F    
Average Humidity 69    
Maximum Humidity 89    
Minimum Humidity 52    
Precipitation  
Precipitation 0.00 in - - ()
Sea Level Pressure  
Sea Level Pressure 29.71 in    
Wind  
Wind Speed 6 mph ()    
Max Wind Speed 15 mph    
Max Gust Speed -    
Visibility 6.1 miles    
Events      
T = Trace of Precipitation, MM = Missing Value Source: Averaged Metar Reports

Daily Weather History Graph

Daily Weather History Graph

Search for Another Location

Airport or City:

Trip Planner

Search our weather history database for the weather conditions in past years. The results will help you decide how hot, cold, wet, or windy it might be!

Date:

Astronomy

Jun. 30, 2013 Rise Set
Actual Time 5:41 AM ICT 6:35 PM ICT
Civil Twilight 5:17 AM ICT 6:58 PM ICT
Nautical Twilight 4:50 AM ICT 7:26 PM ICT
Astronomical Twilight 4:21 AM ICT 7:54 PM ICT
Moon No Moon Rise 12:03 PM ICT (6/30)
Length of Visible Light 13h 41m
Length of Day
12h 54m
Waning Gibbous, 50% of the Moon is Illuminated
Jun 30
Waning Gibbous
Jul 8
New
Jul 16
First Quarter
Jul 23
Full
Jul 30
Last Quarter

Hourly Weather History & Observations

Time (ICT) Temp. Heat Index Dew Point Humidity Pressure Visibility Wind Dir Wind Speed Gust Speed Precip Events Conditions
12:00 AM 78.8 °F - 75.2 °F 89% 29.77 in 5.6 mi Variable 3.5 mph - N/A   Scattered Clouds
12:30 AM 78.8 °F - 75.2 °F 89% 29.77 in 5.6 mi Variable 2.3 mph - N/A   Scattered Clouds
1:00 AM 78.8 °F - 75.2 °F 89% 29.74 in 5.6 mi Variable 3.5 mph - N/A   Scattered Clouds
7:00 AM 80.6 °F 86.2 °F 75.2 °F 84% 29.74 in - SW 5.8 mph - N/A   Partly Cloudy
7:30 AM 80.6 °F 86.2 °F 75.2 °F 84% 29.74 in - WSW 5.8 mph - N/A   Partly Cloudy
8:00 AM 80.6 °F 86.2 °F 75.2 °F 84% 29.77 in - WSW 5.8 mph - N/A   Partly Cloudy
8:30 AM 80.6 °F 86.2 °F 75.2 °F 84% 29.77 in 6.2 mi WSW 5.8 mph - N/A   Partly Cloudy
9:00 AM 86.0 °F 95.1 °F 75.2 °F 70% 29.77 in 6.2 mi WSW 4.6 mph - N/A   Partly Cloudy
9:30 AM 87.8 °F 97.6 °F 75.2 °F 66% 29.77 in 6.2 mi NW 4.6 mph - N/A   Partly Cloudy
10:00 AM 87.8 °F 97.6 °F 75.2 °F 66% 29.77 in 6.2 mi WSW 4.6 mph - N/A   Scattered Clouds
10:30 AM 89.6 °F 99.8 °F 75.2 °F 62% 29.74 in 6.2 mi West 4.6 mph - N/A   Scattered Clouds
11:00 AM 89.6 °F 98.2 °F 73.4 °F 59% 29.74 in 6.2 mi West 4.6 mph - N/A   Scattered Clouds
12:00 PM 91.4 °F 100.1 °F 73.4 °F 55% 29.74 in 6.2 mi West 11.5 mph - N/A   Scattered Clouds
12:30 PM 91.4 °F 100.1 °F 73.4 °F 55% 29.71 in 6.2 mi WNW 9.2 mph - N/A   Scattered Clouds
1:00 PM 89.6 °F 99.8 °F 75.2 °F 62% 29.71 in 6.2 mi NW 11.5 mph - N/A   Mostly Cloudy
1:30 PM 91.4 °F 102.5 °F 75.2 °F 59% 29.71 in 6.2 mi WNW 12.7 mph - N/A   Mostly Cloudy
2:00 PM 91.4 °F 100.1 °F 73.4 °F 55% 29.68 in 6.2 mi West 11.5 mph - N/A   Scattered Clouds
2:30 PM 91.4 °F 100.1 °F 73.4 °F 55% 29.68 in 6.2 mi WNW 13.8 mph - N/A   Scattered Clouds
3:00 PM 91.4 °F 100.1 °F 73.4 °F 55% 29.65 in 6.2 mi WNW 13.8 mph - N/A   Scattered Clouds
3:30 PM 91.4 °F 100.1 °F 73.4 °F 55% 29.65 in 6.2 mi WNW 11.5 mph - N/A   Scattered Clouds
4:00 PM 91.4 °F 100.1 °F 73.4 °F 55% 29.65 in 6.2 mi WNW 11.5 mph - N/A   Partly Cloudy
4:30 PM 91.4 °F 98.4 °F 71.6 °F 52% 29.65 in 6.2 mi SW 15.0 mph - N/A   Partly Cloudy
5:00 PM 91.4 °F 98.4 °F 71.6 °F 52% 29.65 in 6.2 mi West 11.5 mph - N/A   Partly Cloudy
6:00 PM 89.6 °F 96.2 °F 71.6 °F 55% 29.65 in 6.2 mi West 6.9 mph - N/A   Partly Cloudy
6:30 PM 87.8 °F 95.6 °F 73.4 °F 62% 29.65 in 6.2 mi WSW 4.6 mph - N/A   Partly Cloudy
7:00 PM 87.8 °F 97.6 °F 75.2 °F 66% 29.65 in 6.2 mi Calm Calm - N/A   Partly Cloudy
7:30 PM 86.0 °F 95.1 °F 75.2 °F 70% 29.68 in 6.2 mi Calm Calm - N/A   Partly Cloudy
8:30 PM 84.2 °F 94.1 °F 77.0 °F 79% 29.68 in 6.2 mi Calm Calm - N/A   Partly Cloudy
9:00 PM 84.2 °F 94.1 °F 77.0 °F 79% 29.68 in 6.2 mi SW 5.8 mph - N/A   Partly Cloudy
9:30 PM 84.2 °F 92.3 °F 75.2 °F 74% 29.71 in 6.2 mi SSW 8.1 mph - N/A   Partly Cloudy
10:00 PM 82.4 °F 90.9 °F 77.0 °F 84% 29.71 in 5.6 mi Calm Calm - N/A   Partly Cloudy
10:30 PM 82.4 °F 89.5 °F 75.2 °F 79% 29.71 in 5.6 mi SSW 4.6 mph - N/A   Partly Cloudy
11:00 PM 82.4 °F 89.5 °F 75.2 °F 79% 29.71 in 5.6 mi SSW 4.6 mph - N/A   Partly Cloudy
11:30 PM 80.6 °F 86.2 °F 75.2 °F 84% 29.71 in 5.6 mi SSW 4.6 mph - N/A   Partly Cloudy